{"data":{"norad_id":58281,"intl_designator":"2023-174AB","name":"AETHER-1","alt_names":[],"object_type":"PAYLOAD","status":"ACTIVE","operator":null,"country":"CA","launch_date":"2023-11-11","launch_site_code":"AFWTR","launch_vehicle":null,"mission":null,"orbit_class":"UNKNOWN","rcs_meters":null,"size_class":null,"mass_kg":null,"dimensions":null,"purposes":[],"wikipedia_slug":null,"has_3d_model":false,"image_url":null,"decayed_at":null,"tle_current":{"epoch":"2026-05-24T23:36:57.048768Z","epoch_age_seconds":83343,"freshness":"FRESH","line1":"1 58281U 23174AB  26144.98399362  .00158450  00000+0  10592-2 0  9998","line2":"2 58281  97.3813 237.6860 0005647 213.5703 146.5205 15.74828130142292","mean_motion":15.7482813,"eccentricity":0.0005647,"inclination_deg":97.3813,"raan_deg":237.686,"arg_perigee_deg":213.5703,"mean_anomaly_deg":146.5205,"bstar":0.0010592,"rev_number":14229,"period_min":91.438549551436,"perigee_km":341.32367853985,"apogee_km":348.91692533666,"semimajor_km":6723.2573019383,"source":"CELESTRAK","updated_at":"2026-05-25T13:38:00.642898Z"}}}